Weather History for KCOD - August, 2013

Change the Weather History Date:

Wednesday, August 21, 2013

  Actual Average Record
Temperature  
Mean Temperature 72 °F -  
Max Temperature 75 °F 81 °F 95 °F (1960)
Min Temperature 68 °F 52 °F 29 °F (1945)
Cooling Degree Days 6    
Growing Degree Days 22 (Base 50)    
Moisture  
Dew Point 48 °F    
Average Humidity 43    
Maximum Humidity 52    
Minimum Humidity 31    
Precipitation  
Precipitation 0.00 in - - ()
Sea Level Pressure  
Sea Level Pressure 30.19 in    
Wind  
Wind Speed 10 mph (West)    
Max Wind Speed 18 mph    
Max Gust Speed 28 mph    
Visibility 10 miles    
Events      
Averages and records for this station are not official NWS values.
T = Trace of Precipitation, MM = Missing Value Source: NWS Daily Summary

Daily Weather History Graph

Daily Weather History Graph

Search for Another Location

Airport or City:

Trip Planner

Search our weather history database for the weather conditions in past years. The results will help you decide how hot, cold, wet, or windy it might be!

Date:

Astronomy

Aug. 21, 2013 Rise Set
Actual Time 6:26 AM MDT 8:11 PM MDT
Civil Twilight 5:55 AM MDT 8:42 PM MDT
Nautical Twilight 5:17 AM MDT 9:19 PM MDT
Astronomical Twilight 4:36 AM MDT 10:00 PM MDT
Moon 8:16 PM MDT (8/21) 7:14 AM MDT (8/21)
Length of Visible Light 14h 46m
Length of Day
13h 44m
Full, 99% of the Moon is Illuminated
Aug 21
Full
Aug 28
Last Quarter
Sep 5
New
Sep 12
First Quarter
Sep 19
Full

Hourly Weather History & Observations

Time (MDT) Temp. Dew Point Humidity Pressure Visibility Wind Dir Wind Speed Gust Speed Precip Events Conditions
2:15 PM 75.2 °F 46.4 °F 36% 30.16 in 10.0 mi North 8.1 mph - N/A   Clear
2:35 PM 75.2 °F 44.6 °F 34% 30.16 in 10.0 mi NNE 10.4 mph - N/A   Clear
2:55 PM 75.2 °F 44.6 °F 34% 30.16 in 10.0 mi NNE 10.4 mph - N/A   Clear
3:15 PM 75.2 °F 42.8 °F 31% 30.17 in 10.0 mi NNE 8.1 mph - N/A   Mostly Cloudy
3:35 PM 75.2 °F 42.8 °F 31% 30.17 in 10.0 mi NNE 8.1 mph - N/A   Overcast
3:55 PM 75.2 °F 42.8 °F 31% 30.19 in 10.0 mi West 3.5 mph - N/A   Overcast
4:15 PM 73.4 °F 50.0 °F 44% 30.18 in 10.0 mi SW 18.4 mph 25.3 mph N/A   Mostly Cloudy
4:35 PM 71.6 °F 50.0 °F 46% 30.18 in 10.0 mi SW 15.0 mph 27.6 mph N/A   Mostly Cloudy
4:55 PM 69.8 °F 50.0 °F 49% 30.18 in 10.0 mi WSW 15.0 mph 19.6 mph N/A   Mostly Cloudy
5:35 PM 71.6 °F 48.2 °F 43% 30.19 in 10.0 mi West 10.4 mph 19.6 mph N/A   Overcast
5:55 PM 71.6 °F 48.2 °F 43% 30.19 in 10.0 mi West 9.2 mph 16.1 mph N/A   Overcast
6:15 PM 71.6 °F 48.2 °F 43% 30.20 in 10.0 mi South 11.5 mph - N/A   Overcast
6:55 PM 69.8 °F 50.0 °F 49% 30.18 in 10.0 mi WSW 9.2 mph 20.7 mph N/A   Overcast
7:15 PM 69.8 °F 50.0 °F 49% 30.18 in 10.0 mi SW 8.1 mph 20.7 mph N/A   Mostly Cloudy
7:35 PM 71.6 °F 48.2 °F 43% 30.18 in 10.0 mi West 4.6 mph - N/A   Partly Cloudy
7:55 PM 69.8 °F 48.2 °F 46% 30.18 in 10.0 mi West 10.4 mph 18.4 mph N/A   Mostly Cloudy
8:15 PM 69.8 °F 50.0 °F 49% 30.18 in 10.0 mi North 3.5 mph - N/A   Overcast
8:35 PM 68.0 °F 50.0 °F 52% 30.19 in 10.0 mi NE 10.4 mph - N/A   Overcast
8:55 PM 69.8 °F 48.2 °F 46% 30.19 in 10.0 mi West 11.5 mph - N/A   Overcast
9:15 PM 69.8 °F 48.2 °F 46% 30.19 in 10.0 mi North 5.8 mph - N/A   Overcast
9:35 PM 69.8 °F 48.2 °F 46% 30.20 in 10.0 mi Calm Calm - N/A   Overcast
10:15 PM 69.8 °F 48.2 °F 46% 30.20 in 10.0 mi SW 16.1 mph 20.7 mph N/A   Scattered Clouds
10:35 PM 69.8 °F 48.2 °F 46% 30.20 in 10.0 mi WSW 9.2 mph - N/A   Overcast
11:15 PM 69.8 °F 48.2 °F 46% 30.20 in 10.0 mi SW 15.0 mph - N/A   Overcast
11:35 PM 69.8 °F 46.4 °F 43% 30.20 in 10.0 mi SW 11.5 mph 16.1 mph N/A   Overcast
11:55 PM 69.8 °F 48.2 °F 46% 30.21 in 10.0 mi SW 9.2 mph - N/A   Overcast